www.pogodaiklimat.ru

Погода и климат >> Архив погоды >> Россия >> Ленинградская область >> Сосново


ПОГОДА в Сосново

  • Прогноз погоды в Сосново
  • Монитор погоды в Сосново
  • Климат города

АРХИВ ПОГОДЫ в Сосново

Время (UTC), дата Ветер
(напр.,м/с)
 
Видим.   Явления Облачность Т
(С)
Тd
(С)
f
(%)
Тe
(С)
Тes
(С)
Комфортность P
(гПа)
Po
(гПа)
Тmin
(С)
Tmax
(С)
R
(мм)
R24
(мм)
S
(см)
15 14.11 штиль 0 50 км {морось} 10/10 800 м
[Sc]
+4.6 +3.6 93 +3 +3 1021.0 1012.2 0.0
18 14.11 штиль 0 50 км {морось} 6/0
[Ac trans]
+4.0 +3.3 95 +3 +3 1021.8 1013.0 +5.9 0.0
21 14.11 штиль 0 50 км 10/10 840 м
[Sc]
+3.5 +3.0 97 +2 +2 1023.3 1014.5
00 15.11 штиль 0 50 км 10/10 750 м
[Sc]
+4.1 +3.6 97 +3 +3 1025.0 1016.2
03 15.11 штиль 0 50 км {морось} 10/10 600 м
[Sc]
+4.2 +3.7 97 +3 +3 1026.7 1017.9 +3.3 0.0
06 15.11 ЮЗ 1 50 км {морось} 10/10 800 м
[Sc]
+4.6 +3.9 95 +3 +3 1026.5 1017.7 +3.3 0.0
09 15.11 Ю 1 50 км 10/10 800 м
[Sc]
+5.6 +3.7 88 +4 +4 1028.9 1020.1
12 15.11 ЮЗ 2 50 км 10/10 420 м
[St]
+6.3 +4.7 89 +4 +4 1030.2 1021.4
15 15.11 ЮЗ 3 50 км 10/10 600 м
[St]
+6.1 +3.2 82 +3 +3 1031.0 1022.2
18 15.11 ЮЗ 2 50 км 10/10 630 м
[St]
+5.8 +3.7 86 +3 +3 1031.7 1022.9 +6.9
21 15.11 ЮЗ 2 50 км 10/10 900 м
[Sc]
+6.0 +4.1 88 +4 +4 1032.6 1023.8
00 16.11 ЮЗ 2 50 км 10/10 840 м
[Sc]
+5.9 +4.0 88 +3 +3 1033.2 1024.4
03 16.11 З 4 50 км 10/4 600 м
[Sc Ac As]
+6.4 +3.3 81 +3 +3 1033.2 1024.4 +5.2
06 16.11 ЮЗ 4
{10}
50 км 10/10 630 м
[Sc]
+6.6 +3.3 79 +3 +3 1034.2 1025.3 +5.4
09 16.11 ЮЗ 4
{10}
50 км в посл. час дождь 10/10 600 м
[Sc]
+6.7 +4.1 83 +3 +3 1035.5 1026.6
12 16.11 ЮЗ 4 15 км слабая морось {дождь} 10/10 400 м
[St]
+6.4 +5.3 93 +3 +3 1034.9 1026.0
15 16.11 ЮЗ 5
{10}
10 км слабая морось 10/10 330 м
[St]
+7.4 +6.5 94 +3 +3 1034.2 1025.4 0.0
18 16.11 З 5
{12}
50 км {морось} 10/10 420 м
[St]
+8.1 +6.1 87 +4 +4 1033.6 1024.9 +8.3 0.0
21 16.11 З 7-12
{12}
50 км 10/10 480 м
[St]
+8.1 +5.9 86 +4 +4 1033.0 1024.3
00 17.11 З 7-11
{13}
50 км 9/9 870 м
[Sc]
+8.4 +5.3 81 +4 +4 1031.5 1022.8
03 17.11 З 6-11
{14}
50 км 9/4 600 м
[Sc Ac trans]
+8.3 +3.9 74 +4 +4 1030.3 1021.6 +7.0 0.0
06 17.11 З 4
{12}
50 км 9/9 720 м
[Sc]
+6.7 +2.6 75 +3 +3 1028.8 1020.0 +6.2
09 17.11 З 5
{10}
50 км 9/9 720 м
[Sc]
+7.2 +3.4 77 +3 +3 1028.5 1019.8
12 17.11 З 4
{10}
50 км 9/8 900 м
[Sc Ac trans]
+7.2 +2.6 73 +4 +4 1026.0 1017.3
15 17.11 З 4 50 км 9/8 900 м
[Sc Ac trans]
+5.6 +3.7 88 +2 +2 1025.6 1016.8
18 17.11 З 3 50 км 8/6 600 м
[Sc Ac trans]
+5.8 +2.1 77 +3 +3 1022.9 1014.1 +8.7
21 17.11 СЗ 2 50 км 9/4 1000 м
[Sc Ac trans]
+4.0 +1.7 85 +1 +1 1021.8 1013.0
00 18.11 СЗ 2 50 км {морось} 9/9 720 м
[Sc]
+4.2 +2.7 90 +1 +1 1021.7 1012.9
03 18.11 С 5-10
{10}
50 км {дождь, морось} 9/8 1000 м
[Sc Ac trans]
+5.4 +1.9 78 +1 +1 1025.3 1016.5 +3.4 0.9
06 18.11 СВ 6-12
{12}
40 км слабый ливневой дождь 10/5 1000 м
[Cb cap Ac As]
+3.9 +0.8 80 -2 -2 1027.0 1018.2 +3.5 1
09 18.11 СВ 5
{15}
50 км {ливн. осадки} 9/5 1000 м
[Sc Ac trans]
+3.8 -2.1 65 -1 -1 1029.7 1020.9
12 18.11 СВ 5
{15}
50 км {ливн. осадки} 10/10 1140 м
[Sc]
+3.3 -3.1 63 -1 -1 1031.2 1022.4
15 18.11 СВ 3
{12}
50 км 10/4 600 м
[Cb cap Ac As]
+2.9 -2.2 69 -1 -1 1032.8 1024.0 0.7
18 18.11 СВ 4 50 км в посл. час ливневой снег 10/5 600 м
[Cb cap Ac As]
+2.5 -2.7 69 -2 -2 1034.6 1025.7 +4.8 0.4
21 18.11 СВ 3 50 км 10/10 870 м
[Sc]
+1.7 -3.0 71 -2 -2 1036.0 1026.9
00 19.11 СВ 3 50 км 8/8 870 м
[Sc]
+1.2 -3.7 70 -3 -3 1036.4 1027.3
03 19.11 СВ 2 50 км 10/8 900 м
[Sc Ac As]
+1.1 -1.8 81 -2 -2 1037.0 1027.9 +1.1 0.1
06 19.11 СВ 2 50 км 10/10 1000 м
[Sc]
+1.2 -5.1 63 -2 -2 1038.0 1028.9 +0.7
09 19.11 С 2 50 км 9/9 1000 м
[Sc]
+1.3 -5.0 63 -2 -2 1039.1 1030.0
12 19.11 СВ 2 50 км 9/9 1080 м
[Sc]
+1.3 -5.4 61 -2 -2 1038.4 1029.3
15 19.11 СВ 1 50 км 9/9 840 м
[Sc]
+0.3 -4.4 71 -1 -1 1038.0 1028.9
18 19.11 С 1 50 км 9/0
[Ac trans Ci fib]
-0.8 -4.7 75 -3 -3 1037.2 1028.1 +1.8
21 19.11 ЮЗ 1 50 км ясно -3.5 -5.3 87 -6 -6 1036.4 1027.1
00 20.11 З 1 50 км ясно -4.0 -5.5 89 -6 -6 1034.9 1025.6
03 20.11 З 2 50 км ясно -3.1 -4.8 88 -7 -7 1032.0 1022.8 -4.3
06 20.11 З 4 50 км 9/0
[Ac trans Ci fib]
-3.0 -3.1 99 -9 -9 1030.7 1021.7 -4.3
09 20.11 З 5 50 км 9/1 1000 м
[Sc Ac trans Ci fib]
-0.9 -1.0 99 -7 -7 1027.6 1018.4
12 20.11 СЗ 4
{10}
50 км 9/8 600 м
[Sc Ac trans Ci fib]
-0.2 -0.2 100 -6 -6 1026.9 1017.9
15 20.11 СЗ 2 50 км 10/10 420 м
[St]
-2.2 -2.2 100 -6 -6 1028.0 1019.0
18 20.11 СЗ 1 4000 м слабый ливневой снег 9/8 450 м
[Cb cap Ac trans]
-1.5 -1.4 100 -4 -4 1027.9 1018.9 +0.8 0.0
21 20.11 штиль 0 50 км в посл. час ливневой снег ?/? -0.4 -0.5 99 -2 -2 1028.3 1019.3
00 21.11 СЗ 1 50 км {ливн. осадки} 8/8 600 м
[]
-0.8 -0.9 99 -3 -3 1029.2 1020.2
03 21.11 штиль 0 50 км 3/1 1000 м
[Sc Ac trans]
-4.2 -4.1 100 -5 -5 1030.3 1021.1 -4.4 0.2
06 21.11 З 1 50 км 9/0
[Ac trans Ci sp]
-4.9 -5.2 98 -7 -7 1029.5 1020.3 -4.9 0.2 1
09 21.11 З 2 50 км 9/0
[Ac trans]
-2.3 -2.6 98 -7 -6 1029.9 1020.9
12 21.11 З 2 50 км 9/0
[Ac trans Ci fib]
-0.8 -4.0 79 -4 -4 1029.0 1020.0

 

Местоположение метеостанции Сосново (Ленинградская область, Россия): широта 60.55 долгота 30.32 высота над уровнем моря 70 м.

В архиве по умолчанию представлена погода в Сосново за последнюю неделю. Архивные данные за месяц целиком и за предыдущие месяцы, начиная с января 2011 года, Вы можете получить, выбрав интересующий диапазон дат из раскрывающегося списка и нажав кнопку "Ввод!".


*Определитесь, кто Вы:
робот инопланетянин человек

Внимание! Время в таблицах - всемирное. Для получения местного времени необходимо прибавить поправку, которая в Сосново равна 3 ч.

Смотрите также архив погоды в соседних городах и на ближайших метеорологических станциях:

Погода в Рощино (Ленинградская область, Россия) (51 км)
Погода в Лисьем Носу (город Санкт-Петербург, Россия) (62 км)
Погода в Санкт-Петербурге (город Санкт-Петербург, Россия) (65 км)
Погода в Воейково (город Санкт-Петербург, Россия) (70 км)
Погода в Кронштадте (город Санкт-Петербург, Россия) (71 км)
Погода в Ломоносове (город Санкт-Петербург, Россия) (76 км)
Погода в Шлиссельбурге (Ленинградская область, Россия) (79 км)
Погода в Озерках (Ленинградская область, Россия) (82 км)
Погода в Выборге (Ленинградская область, Россия) (89 км)
Погода в Лесогорском (Ленинградская область, Россия) (92 км)

Пояснения к столбцам:

Ветер - указаны скорость ветра в м/с - средняя за 10 мин, порывы в срок и между сроками (в фигурных скобках) и направление, откуда дует ветер: С - северный, СВ - северо-восточный, В - восточный, ЮВ - юго-восточный, Ю - южный, ЮЗ - юго-западный, З - западный, СЗ - северо-западный.
Видимость - горизонтальная дальность видимости в метрах или километрах. При видимости от 1 до 10 км при отсутствии осадков обычно наблюдается дымка, при ухудшении видимости до 1 км и менее - туман. В сухую погоду видимость может ухудшаться дымом, пылью или мглою.
Явления - указаны атмосферные явления, наблюдавшиеся в срок или в последний час перед сроком; фигурными скобками обозначены явления, наблюдавшиеся между сроками (за 1-3 часа до срока); квадратными скобками обозначены град или гололедные отложения с указанием их диаметра в мм.
Облачность - указаны через наклонную черту общая и нижняя облачность в баллах и высота нижней границы облаков в метрах; квадратными скобками обозначены формы облаков: Ci - перистые, Cs - перисто-слоистые, Cc - перисто-кучевые, Ac - высококучевые, As - высокослоистые, Sc - слоисто-кучевые, Ns - слоисто-дождевые, Cu - кучевые, Cb - кучево-дождевые. Подробнее классификацию облаков см. в Атласе облаков (PDF).
T - Температура воздуха - температура, измеренная на высоте 2 м над землей.
Td - Температура точки росы - температура, при понижении до которой содержащийся в воздухе водяной пар достигнет насыщения.
f - Относительная влажность воздуха - влажноcть воздуха, измеренная на высоте 2 м над землей.
Te - Эффективная температура - температура, которую ощущает одетый по сезону человек в тени. Характеристика душности погоды. При расчете учитывается влияние влажности воздуха и скорости ветра на теплоощущения человека.
Tes - Эффективная температура на солнце - температура, которую ощущает человек, с поправкой на солнечный нагрев. Характеристика знойности погоды. Зависит от высоты солнца над горизонтом, облачности и скорости ветра. Ночью, в пасмурную погоду, а также при ветре 12 м/с и более поправка равна нулю.
P - Атмосферное давление - приведенное к уровню моря атмосферное давление.
Po - Атмосферное давление - измеренное на уровне метеостанции атмосферное давление.
Tmin - Минимальная температура - минимум температуры воздуха на высоте 2 м над землей.
Tmax - Максимальная температура - максимум температуры воздуха на высоте 2 м над землей.
R - Количество осадков - Количество выпавших осадков за период времени, мм. При наведении курсора мыши на число - период времени, за который выпало указанное количество осадков.
R24 - Количество осадков - Количество выпавших осадков за 24 часа, мм.
S - Снежный покров - Высота снежного покрова, см. При наведении курсора мыши на число - состояние снежного покрова и степень покрытия местности в баллах.